| time (UTC) | temp F | wind direction | speed MPH | gust MPH | rain 1hr in | rain 24hr in | rain mn in | humidity % | barometer mb |
| 20260507204502 | 48 | 157 | 0.0 | 0.0 | 0.00 | 0.00 | 0.00 | 86 | 1014.8 |
| 20260507203111 | 48 | 157 | 0.0 | 2.0 | 0.00 | 0.00 | 0.00 | 85 | 1014.8 |
| 20260507201503 | 50 | 115 | 0.0 | 1.0 | 0.00 | 0.00 | 0.00 | 84 | 1014.8 |
| 20260507200111 | 50 | 53 | 0.0 | 3.0 | 0.00 | 0.00 | 0.00 | 83 | 1014.7 |
| 20260507194504 | 51 | 83 | 0.0 | 3.0 | 0.00 | 0.00 | 0.00 | 82 | 1014.5 |
| 20260507193103 | 52 | 17 | 0.0 | 0.0 | 0.00 | 0.00 | 0.00 | 82 | 1014.3 |
| 20260507191502 | 52 | 24 | 0.0 | 0.0 | 0.00 | 0.00 | 0.00 | 82 | 1014.1 |
| 20260507190005 | 53 | 24 | 0.0 | 0.0 | 0.00 | 0.00 | 0.00 | 81 | 1014.0 |
| 20260507184603 | 53 | 302 | 0.0 | 3.0 | 0.00 | 0.00 | 0.00 | 80 | 1013.8 |
| 20260507183009 | 54 | 360 | 0.0 | 0.0 | 0.00 | 0.00 | 0.00 | 78 | 1013.7 |
| 20260507181605 | 54 | 360 | 0.0 | 1.0 | 0.00 | 0.00 | 0.00 | 76 | 1013.5 |
| 20260507180006 | 54 | 93 | 0.0 | 0.0 | 0.00 | 0.00 | 0.00 | 75 | 1013.5 |
| 20260507174605 | 55 | 360 | 0.0 | 0.0 | 0.00 | 0.00 | 0.00 | 75 | 1013.4 |
| 20260507173005 | 55 | 96 | 0.0 | 0.0 | 0.00 | 0.00 | 0.00 | 73 | 1013.3 |
| 20260507171606 | 54 | 94 | 0.0 | 0.0 | 0.00 | 0.00 | 0.00 | 72 | 1013.3 |
| 20260507170003 | 55 | 96 | 0.0 | 0.0 | 0.00 | 0.00 | 0.00 | 74 | 1013.2 |
| 20260507164607 | 55 | 360 | 0.0 | 3.0 | 0.00 | 0.13 | 0.00 | 73 | 1013.2 |
| 20260507163002 | 56 | 360 | 1.0 | 3.0 | 0.00 | 0.13 | 0.00 | 72 | 1013.2 |
| 20260507161604 | 55 | 360 | 0.0 | 2.0 | 0.00 | 0.13 | 0.00 | 71 | 1013.2 |
| 20260507160001 | 56 | 313 | 3.0 | 6.0 | 0.00 | 0.13 | 0.00 | 70 | 1013.3 |
| 20260507153002 | 56 | 360 | 4.0 | 9.0 | 0.00 | 0.13 | 0.00 | 68 | 1013.0 |
| 20260507151602 | 56 | 44 | 3.0 | 8.0 | 0.00 | 0.13 | 0.00 | 68 | 1012.8 |
| 20260507150006 | 56 | 360 | 5.0 | 9.0 | 0.00 | 0.13 | 0.00 | 67 | 1012.9 |
| 20260507144506 | 56 | 339 | 5.0 | 13.0 | 0.00 | 0.13 | 0.00 | 67 | 1012.9 |
| 20260507143114 | 56 | 339 | 5.0 | 8.0 | 0.00 | 0.13 | 0.00 | 66 | 1013.0 |
| 20260507141502 | 56 | 325 | 5.0 | 10.0 | 0.00 | 0.13 | 0.00 | 64 | 1012.9 |
| 20260507134502 | 57 | 350 | 4.0 | 9.0 | 0.00 | 0.13 | 0.00 | 63 | 1012.9 |
| 20260507133134 | 58 | 330 | 3.0 | 8.0 | 0.00 | 0.13 | 0.00 | 59 | 1013.0 |
| 20260507131503 | 58 | 271 | 0.0 | 8.0 | 0.00 | 0.13 | 0.00 | 59 | 1013.0 |
| 20260507130110 | 57 | 309 | 3.0 | 8.0 | 0.00 | 0.13 | 0.00 | 60 | 1012.9 |
| 20260507124504 | 57 | 360 | 6.0 | 13.0 | 0.00 | 0.28 | 0.00 | 64 | 1012.9 |
| 20260507123102 | 57 | 342 | 5.0 | 11.0 | 0.00 | 0.28 | 0.00 | 64 | 1012.8 |
| 20260507121503 | 57 | 12 | 5.0 | 11.0 | 0.00 | 0.28 | 0.00 | 64 | 1012.6 |
| 20260507120110 | 57 | 13 | 6.0 | 9.0 | 0.00 | 0.28 | 0.00 | 65 | 1012.6 |
| 20260507114503 | 58 | 350 | 7.0 | 11.0 | 0.00 | 0.28 | 0.00 | 63 | 1012.8 |
| 20260507113104 | 58 | 360 | 3.0 | 8.0 | 0.00 | 0.28 | 0.00 | 62 | 1012.7 |
| 20260507111503 | 56 | 30 | 4.0 | 11.0 | 0.00 | 0.28 | 0.00 | 64 | 1012.8 |
| 20260507110103 | 58 | 85 | 7.0 | 11.0 | 0.00 | 0.28 | 0.00 | 62 | 1012.9 |
| 20260507104503 | 58 | 13 | 3.0 | 6.0 | 0.00 | 0.28 | 0.00 | 63 | 1013.0 |
| 20260507103102 | 57 | 122 | 3.0 | 8.0 | 0.00 | 0.28 | 0.00 | 61 | 1013.1 |
| 20260507101614 | 57 | 109 | 2.0 | 5.0 | 0.00 | 0.28 | 0.00 | 60 | 1013.2 |
| 20260507100002 | 57 | 88 | 2.0 | 7.0 | 0.00 | 0.28 | 0.00 | 60 | 1013.2 |
| 20260507094606 | 56 | 174 | 0.0 | 8.0 | 0.00 | 0.28 | 0.00 | 62 | 1013.3 |
| 20260507093003 | 54 | 360 | 1.0 | 6.0 | 0.00 | 0.28 | 0.00 | 66 | 1013.4 |
| 20260507091603 | 53 | 360 | 1.0 | 8.0 | 0.00 | 0.28 | 0.00 | 69 | 1013.4 |
| 20260507090008 | 53 | 360 | 2.0 | 7.0 | 0.00 | 0.28 | 0.00 | 73 | 1013.3 |
| 20260507084603 | 52 | 360 | 1.0 | 4.0 | 0.00 | 0.28 | 0.00 | 73 | 1013.2 |
| 20260507083003 | 51 | 221 | 1.0 | 5.0 | 0.00 | 0.28 | 0.00 | 77 | 1013.2 |
| 20260507081602 | 51 | 288 | 1.0 | 4.0 | 0.00 | 0.28 | 0.00 | 80 | 1013.1 |
| 20260507080003 | 49 | 11 | 0.0 | 4.0 | 0.00 | 0.28 | 0.00 | 84 | 1013.0 |
| 20260507074603 | 49 | 32 | 2.0 | 4.0 | 0.00 | 0.28 | 0.00 | 85 | 1013.0 |
| 20260507073003 | 49 | 355 | 2.0 | 6.0 | 0.00 | 0.28 | 0.00 | 84 | 1013.0 |
| 20260507071602 | 49 | 329 | 2.0 | 5.0 | 0.00 | 0.28 | 0.00 | 83 | 1012.9 |
| 20260507070004 | 49 | 18 | 0.0 | 4.0 | 0.00 | 0.28 | 0.00 | 85 | 1012.8 |
| 20260507064605 | 49 | 15 | 1.0 | 3.0 | 0.00 | 0.28 | 0.00 | 87 | 1012.5 |
| 20260507063002 | 48 | 125 | 0.0 | 0.0 | 0.00 | 0.28 | 0.00 | 88 | 1012.6 |
| 20260507061603 | 47 | 125 | 0.0 | 0.0 | 0.00 | 0.28 | 0.00 | 89 | 1012.6 |
| 20260507060003 | 47 | 161 | 0.0 | 2.0 | 0.00 | 0.28 | 0.00 | 90 | 1012.4 |
| 20260507054602 | 47 | 163 | 0.0 | 3.0 | 0.00 | 0.28 | 0.00 | 90 | 1012.3 |
| 20260507053003 | 46 | 147 | 1.0 | 5.0 | 0.00 | 0.28 | 0.00 | 90 | 1012.1 |
| 20260507051610 | 46 | 155 | 3.0 | 5.0 | 0.00 | 0.28 | 0.00 | 90 | 1012.0 |
| 20260507050002 | 46 | 158 | 3.0 | 4.0 | 0.00 | 0.28 | 0.00 | 90 | 1011.8 |
| 20260507044601 | 46 | 251 | 1.0 | 3.0 | 0.00 | 0.28 | 0.00 | 91 | 1011.7 |
| 20260507043008 | 46 | 117 | 2.0 | 4.0 | 0.00 | 0.28 | 0.00 | 91 | 1011.3 |
| 20260507041602 | 46 | 129 | 1.0 | 3.0 | 0.00 | 0.28 | 0.00 | 91 | 1011.4 |
| 20260507040003 | 46 | 136 | 1.0 | 4.0 | 0.00 | 0.28 | 0.00 | 90 | 1011.2 |
| 20260507034503 | 46 | 159 | 2.0 | 4.0 | 0.00 | 0.28 | 0.00 | 90 | 1011.2 |
| 20260507033112 | 46 | 142 | 1.0 | 3.0 | 0.00 | 0.28 | 0.00 | 89 | 1011.1 |
| 20260507031502 | 46 | 136 | 2.0 | 4.0 | 0.00 | 0.28 | 0.00 | 88 | 1011.0 |
| 20260507024508 | 46 | 109 | 0.0 | 2.0 | 0.00 | 0.28 | 0.00 | 89 | 1010.9 |
| 20260507023102 | 47 | 109 | 0.0 | 0.0 | 0.00 | 0.28 | 0.00 | 89 | 1010.8 |
| 20260507021502 | 47 | 109 | 0.0 | 3.0 | 0.00 | 0.28 | 0.00 | 90 | 1010.9 |
| 20260507020115 | 46 | 55 | 0.0 | 3.0 | 0.00 | 0.28 | 0.00 | 91 | 1010.7 |
| 20260507014502 | 46 | 63 | 0.0 | 5.0 | 0.00 | 0.28 | 0.00 | 92 | 1010.5 |
| 20260507013102 | 46 | 87 | 0.0 | 2.0 | 0.00 | 0.28 | 0.00 | 92 | 1010.5 |
| 20260507011509 | 47 | 82 | 0.0 | 4.0 | 0.00 | 0.28 | 0.00 | 92 | 1010.5 |
| 20260507010104 | 47 | 138 | 1.0 | 3.0 | 0.00 | 0.28 | 0.00 | 92 | 1010.4 |
| 20260507004504 | 47 | 141 | 2.0 | 5.0 | 0.00 | 0.28 | 0.00 | 91 | 1010.2 |
| 20260507003101 | 47 | 139 | 0.0 | 2.0 | 0.00 | 0.28 | 0.00 | 91 | 1010.3 |
| 20260507001504 | 47 | 138 | 1.0 | 3.0 | 0.00 | 0.28 | 0.00 | 91 | 1010.3 |
| 20260506234502 | 47 | 121 | 0.0 | 0.0 | 0.00 | 0.28 | 0.00 | 91 | 1010.4 |
| 20260506233112 | 47 | 121 | 0.0 | 2.0 | 0.00 | 0.28 | 0.00 | 91 | 1010.3 |
| 20260506231503 | 47 | 80 | 2.0 | 4.0 | 0.00 | 0.28 | 0.00 | 91 | 1010.3 |
| 20260506230103 | 47 | 132 | 1.0 | 5.0 | 0.00 | 0.28 | 0.00 | 91 | 1010.1 |
| 20260506224502 | 47 | 154 | 0.0 | 2.0 | 0.00 | 0.28 | 0.00 | 91 | 1010.2 |
| 20260506223106 | 47 | 153 | 0.0 | 0.0 | 0.00 | 0.28 | 0.00 | 91 | 1010.2 |
| 20260506221612 | 47 | 153 | 0.0 | 3.0 | 0.00 | 0.28 | 0.00 | 91 | 1010.1 |
| 20260506220004 | 47 | 170 | 2.0 | 8.0 | 0.00 | 0.28 | 0.00 | 91 | 1010.0 |
| 20260506214603 | 47 | 261 | 0.0 | 2.0 | 0.00 | 0.28 | 0.28 | 92 | 1010.0 |
| 20260506213002 | 47 | 115 | 3.0 | 5.0 | 0.00 | 0.28 | 0.28 | 92 | 1009.9 |
| 20260506211601 | 46 | 151 | 0.0 | 3.0 | 0.00 | 0.28 | 0.28 | 92 | 1010.0 |
| 20260506210003 | 46 | 190 | 1.0 | 3.0 | 0.00 | 0.28 | 0.28 | 92 | 1009.9 |